Regional Weather Roundup
Issued by NWS Jackson, KY

Home | Current Version | Previous Version | Graphics & Text | Print | Product List | Glossary On
Versions: 1 2 3 4 5 6 7 8 9 10 11 12 13 14 15 16 17 18 19 20 21 22 23 24 25 26 27 28 29 30 31 32 33 34 35 36 37 38 39 40 41 42 43 44 45 46 47 48 49 50
000
ASUS43 KJKL 261610
RWRJKL

EAST KENTUCKY HOURLY WEATHER ROUNDUP
NATIONAL WEATHER SERVICE JACKSON KY
1200 PM EDT WED JUL 26 2017

NOTE: "FAIR" INDICATES FEW OR NO CLOUDS BELOW 12,000 FEET WITH
NO SIGNIFICANT WEATHER AND/OR OBSTRUCTIONS TO VISIBILITY.

* THESE REPORTS ARE NOT UNDER NWS QUALITY CONTROL AND MAY NOT
  REPORT WEATHER SUCH AS PRECIPITATION AND FOG.

KYZ079-080-083-085-087-088-110-112-115-119-120-261700
...EASTERN KENTUCKY...

CITY           SKY/WX    TMP DP  RH WIND       PRES   REMARKS
JACKSON        SUNNY     80  67  64 CALM      30.18S
LONDON         MOSUNNY   83  62  49 SW3       30.18S
SOMERSET*      PTSUNNY   79  64  61 CALM      30.17F
MONTICELLO*    CLOUDY    82  73  74 VRB3      30.18S
WILLIAMSBURG*  MOSUNNY   82  68  61 CALM      30.17F
MIDDLESBORO*   PTSUNNY   82  71  69 N3        30.18S
PIKE CO APT*     N/A     78  67  68 CALM      30.20S
BIG SANDY APT* SUNNY     78  67  68 CALM      30.19S
MOREHEAD APT*  SUNNY     77  63  61 CALM      30.18F
ASHLAND*       SUNNY     79  64  61 CALM      30.14
$$

KYZ035-036-041-042-044-050-067-078-099-261700
...CENTRAL KENTUCKY...

CITY           SKY/WX    TMP DP  RH WIND       PRES   REMARKS
MT STERLING*   SUNNY     81  63  54 N3        30.18F
FLEMING/MASON* SUNNY     78  62  58 CALM      30.17F
DANVILLE*      PTSUNNY   81  68  65 CALM      30.18S
LEXINGTON      SUNNY     82  65  56 CALM      30.16F
FRANKFORT      SUNNY     81  66  60 SE5       30.14F
LOUISVILLE     MOSUNNY   83  68  60 SE7       30.12F
LEBANON*         N/A     81  68  65 CALM      30.15F
GLASGOW*       SUNNY     89  70  52 W3        30.13S HX  94
BOWLING GREEN  SUNNY     89  74  60 CALM      30.11S HX  98
$$

KYZ091>093-OHZ055-061-077-WVZ005-015-034-035-042-261700
...SOUTHERN OHIO/WEST VIRGINIA...

CITY           SKY/WX    TMP DP  RH WIND       PRES   REMARKS
COVINGTON      MOSUNNY   80  66  62 CALM      30.15S
COLUMBUS       MOSUNNY   75  62  64 NE3       30.17S
DAYTON         MOSUNNY   74  58  57 CALM      30.17F
WILMINGTON     SUNNY     74  64  71 VRB5      30.17S
HUNTINGTON     SUNNY     79  62  56 S3        30.17R
CHARLESTON     MOSUNNY   82  63  52 CALM      30.16F
PINEVILLE*     PTSUNNY   81  67  61 MISG      30.25R
BECKLEY        PTSUNNY   72  62  71 SE9       30.25S
BLUEFIELD      MOSUNNY   69  61  75 S8        30.28R
LOGAN CO APT*    N/A     79  64  61 CALM      30.19S
$$

VAZ002-007-008-TNZ017-027-036-066-071-261700
...SOUTHWEST VIRGINIA/EAST TENNESSEE...

CITY           SKY/WX    TMP DP  RH WIND       PRES   REMARKS
WISE*          SUNNY     81  48  32 SW5       30.26S
JONESVILLE*      N/A     82  66  57 CALM      30.21S
ABINGDON*      CLOUDY    81  68  64 SW5       30.23S
BRISTOL        MOSUNNY   86  66  51 VRB5      30.19S
MORRISTOWN*    SUNNY     84  70  61 NW7       30.17R
SEVIERVILLE*   SUNNY     90  61  37 CALM      30.15R
KNOXVILLE      MOSUNNY   88  60  38 VRB3      30.14S
LAFOLLETTE*    SUNNY     82  72  69 CALM      30.20F
OAK RIDGE      SUNNY     87  68  52 CALM      30.16F HX  90
CROSSVILLE     PTSUNNY   82  68  62 S5        30.21S
NASHVILLE      MOSUNNY   92  73  53 VRB5      30.12S HX 100
$$

...KEY TO REMARKS...
VSB - VISIBILITY IN MILES
WCI - WIND CHILL INDEX
HX  - HEAT INDEX

$$



USA.gov is the U.S. government's official web portal to all federal, state and local government web resources and services.